BREEZE-M R/B

Last updated on July 6, 2021, 3:22 p.m. UTC

1 38746U 12044C   21186.74138050  .00006968  00000-0  42721-3 0  9993
2 38746  49.6817 341.9454 2384712 186.7484 169.4705 10.54693501327222
UTC
Height (km)
Latitude
Longitude
Inclination
Orbital Period
UTC large
Height (km)
Speed (km/s)
/
Latitude / Longitude
Inclination (degrees)
Orbital Period (minutes)
Azimuth
Elevation
Range (km)
Doppler Factor
iOS Compass Heading
iOS Angle